�������l�o���
Date,Time,MP-1(��Sv/h),MP-2(��Sv/h),MP-3(��Sv/h),MP-4(��Sv/h),MP-5(��Sv/h),MP-6(��Sv/h),MP-7(��Sv/h),����,����(m/s),���J
2019/06/13,00:00,0.190,0.173,0.290,0.271,0.267,0.144,0.089,�k�k��,2.8,��
2019/06/13,00:10,0.191,0.172,0.287,0.270,0.269,0.144,0.088,�k�k��,2.1,��
2019/06/13,00:20,0.189,0.173,0.288,0.271,0.267,0.144,0.088,�k��,2.2,��
2019/06/13,00:30,0.191,0.172,0.287,0.269,0.269,0.144,0.089,�k�k��,2.2,��
2019/06/13,00:40,0.190,0.172,0.290,0.271,0.268,0.145,0.088,�k�k��,1.0,��
2019/06/13,00:50,0.190,0.172,0.288,0.270,0.270,0.144,0.088,�k�k��,1.1,��
2019/06/13,01:00,0.190,0.173,0.289,0.270,0.268,0.144,0.088,�k�k��,0.9,��
2019/06/13,01:10,0.191,0.172,0.288,0.271,0.270,0.143,0.089,�k�k��,1.0,��
2019/06/13,01:20,0.189,0.172,0.288,0.269,0.267,0.143,0.088,-,CALM,��
2019/06/13,01:30,0.190,0.173,0.288,0.270,0.270,0.144,0.089,-,CALM,��
2019/06/13,01:40,0.190,0.173,0.289,0.270,0.267,0.144,0.089,-,CALM,��
2019/06/13,01:50,0.189,0.172,0.289,0.271,0.269,0.143,0.089,-,CALM,��
2019/06/13,02:00,0.191,0.173,0.288,0.270,0.270,0.144,0.089,-,CALM,��
2019/06/13,02:10,0.189,0.172,0.289,0.269,0.268,0.145,0.089,-,CALM,��
2019/06/13,02:20,0.190,0.173,0.288,0.269,0.269,0.144,0.088,-,CALM,��
2019/06/13,02:30,0.191,0.172,0.289,0.270,0.268,0.144,0.089,��쐼,0.7,��
2019/06/13,02:40,0.190,0.172,0.290,0.272,0.269,0.145,0.089,��,1.1,��
2019/06/13,02:50,0.190,0.173,0.288,0.272,0.268,0.145,0.089,���쓌,0.7,��
2019/06/13,03:00,0.190,0.173,0.287,0.271,0.268,0.143,0.088,��쓌,0.9,��
2019/06/13,03:10,0.190,0.173,0.289,0.272,0.270,0.145,0.088,��,1.3,��
2019/06/13,03:20,0.188,0.173,0.289,0.271,0.268,0.144,0.089,��,1.3,��
2019/06/13,03:30,0.191,0.172,0.288,0.271,0.269,0.145,0.089,��쓌,1.9,��
2019/06/13,03:40,0.190,0.172,0.289,0.272,0.270,0.144,0.088,��,2.5,��
2019/06/13,03:50,0.189,0.173,0.288,0.270,0.268,0.144,0.089,��,3.1,��
2019/06/13,04:00,0.191,0.172,0.290,0.271,0.270,0.145,0.088,��쓌,3.4,��
2019/06/13,04:10,0.190,0.173,0.288,0.270,0.267,0.144,0.090,��쓌,2.7,��
2019/06/13,04:20,0.190,0.173,0.288,0.270,0.269,0.144,0.090,��쓌,3.0,��
2019/06/13,04:30,0.190,0.172,0.290,0.272,0.269,0.145,0.089,��쓌,3.4,��
2019/06/13,04:40,0.191,0.174,0.289,0.270,0.268,0.144,0.089,��쓌,2.3,��
2019/06/13,04:50,0.191,0.173,0.287,0.271,0.270,0.144,0.089,��쓌,2.3,��
2019/06/13,05:00,0.189,0.173,0.290,0.272,0.270,0.144,0.090,��쓌,1.8,��
2019/06/13,05:10,0.191,0.174,0.288,0.271,0.270,0.145,0.089,��쓌,0.6,��
2019/06/13,05:20,0.190,0.173,0.290,0.272,0.268,0.143,0.090,��쓌,0.7,��
2019/06/13,05:30,0.189,0.172,0.290,0.269,0.267,0.144,0.089,��,0.6,��
2019/06/13,05:40,0.191,0.172,0.288,0.272,0.268,0.145,0.089,-,CALM,��
2019/06/13,05:50,0.190,0.172,0.289,0.273,0.267,0.145,0.090,��쐼,0.6,��
2019/06/13,06:00,0.191,0.172,0.289,0.271,0.270,0.144,0.089,-,CALM,��
2019/06/13,06:10,0.190,0.172,0.288,0.272,0.268,0.145,0.089,-,CALM,��
2019/06/13,06:20,0.191,0.171,0.289,0.272,0.267,0.144,0.089,�쐼,0.7,��
2019/06/13,06:30,0.190,0.173,0.288,0.272,0.268,0.144,0.088,-,CALM,��
2019/06/13,06:40,0.190,0.173,0.289,0.270,0.265,0.143,0.089,-,CALM,��
2019/06/13,06:50,0.189,0.172,0.288,0.271,0.271,0.144,0.089,-,CALM,��
2019/06/13,07:00,0.190,0.174,0.289,0.270,0.268,0.144,0.090,��쓌,1.2,��
2019/06/13,07:10,0.190,0.173,0.288,0.269,0.270,0.144,0.089,��쓌,0.8,��
2019/06/13,07:20,0.190,0.173,0.286,0.268,0.269,0.144,0.090,��,0.9,��
2019/06/13,07:30,0.190,0.174,0.288,0.271,0.269,0.144,0.089,���쓌,0.7,��
2019/06/13,07:40,0.190,0.173,0.286,0.270,0.270,0.144,0.089,���쓌,1.0,��
2019/06/13,07:50,0.188,0.172,0.285,0.269,0.266,0.145,0.089,���쓌,0.7,��
2019/06/13,08:00,0.190,0.173,0.285,0.273,0.269,0.144,0.090,��,1.4,��
2019/06/13,08:10,0.189,0.173,0.288,0.270,0.268,0.144,0.089,���k��,1.0,��
2019/06/13,08:20,0.191,0.171,0.288,0.269,0.266,0.144,0.088,���k��,1.4,��
2019/06/13,08:30,0.189,0.174,0.286,0.267,0.270,0.144,0.090,��,1.6,��
2019/06/13,08:40,0.190,0.172,0.288,0.269,0.268,0.145,0.090,���k��,1.4,��
2019/06/13,08:50,0.191,0.172,0.291,0.271,0.267,0.143,0.090,���k��,1.1,��
2019/06/13,09:00,0.189,0.173,0.287,0.270,0.266,0.144,0.089,�k�k��,1.4,��
2019/06/13,09:10,0.191,0.174,0.285,0.269,0.270,0.146,0.089,�k��,1.4,��
2019/06/13,09:20,0.190,0.173,0.289,0.267,0.269,0.144,0.090,���k��,1.7,��
2019/06/13,09:30,0.189,0.172,0.290,0.267,0.266,0.143,0.089,��,1.4,��
2019/06/13,09:40,0.190,0.174,0.288,0.268,0.267,0.144,0.089,��,2.4,��
2019/06/13,09:50,0.191,0.173,0.288,0.267,0.271,0.145,0.088,���쓌,2.3,��
2019/06/13,10:00,0.189,0.172,0.290,0.273,0.270,0.145,0.090,�쓌,2.2,��
2019/06/13,10:10,0.188,0.172,0.288,0.273,0.267,0.144,0.090,���쓌,2.3,��
2019/06/13,10:20,0.188,0.174,0.288,0.272,0.266,0.144,0.089,���쓌,2.5,��
2019/06/13,10:30,0.190,0.173,0.289,0.270,0.270,0.145,0.089,���쓌,1.8,��
2019/06/13,10:40,0.190,0.172,0.289,0.270,0.270,0.144,0.089,���쓌,2.3,��
2019/06/13,10:50,0.189,0.171,0.287,0.267,0.270,0.145,0.089,���쓌,3.0,��
2019/06/13,11:00,0.187,0.173,0.286,0.269,0.268,0.145,0.090,�쓌,2.6,��
2019/06/13,11:10,0.187,0.174,0.285,0.270,0.266,0.146,0.090,��,2.9,��
2019/06/13,11:20,0.192,0.175,0.286,0.274,0.270,0.146,0.089,��,2.9,��
2019/06/13,11:30,0.191,0.172,0.285,0.272,0.270,0.144,0.089,���쓌,3.2,��
2019/06/13,11:40,0.189,0.172,0.290,0.270,0.268,0.144,0.089,���쓌,2.9,��
2019/06/13,11:50,0.189,0.174,0.290,0.270,0.268,0.146,0.089,�쓌,1.8,��
2019/06/13,12:00,0.188,0.173,0.288,0.269,0.267,0.144,0.090,�쓌,1.0,��
2019/06/13,12:10,0.188,0.172,0.287,0.268,0.269,0.144,0.089,��쓌,0.7,��
2019/06/13,12:20,0.190,0.172,0.286,0.269,0.270,0.145,0.089,���쓌,1.9,��
2019/06/13,12:30,0.192,0.173,0.286,0.272,0.270,0.144,0.089,��쓌,2.0,��
2019/06/13,12:40,0.190,0.174,0.286,0.274,0.268,0.145,0.088,���쓌,3.4,��
2019/06/13,12:50,0.190,0.173,0.286,0.272,0.267,0.145,0.088,�쓌,1.9,��
2019/06/13,13:00,0.189,0.172,0.286,0.272,0.267,0.144,0.089,�쓌,2.5,��
2019/06/13,13:10,0.187,0.173,0.287,0.270,0.267,0.145,0.089,��쓌,3.3,��
2019/06/13,13:20,0.189,0.174,0.288,0.270,0.268,0.144,0.090,��쓌,3.6,��
2019/06/13,13:30,0.189,0.175,0.287,0.270,0.271,0.145,0.088,�쓌,3.1,��
2019/06/13,13:40,0.187,0.174,0.291,0.269,0.270,0.145,0.088,�쓌,1.5,��
2019/06/13,13:50,0.189,0.173,0.291,0.269,0.269,0.145,0.089,-,CALM,��
2019/06/13,14:00,0.188,0.172,0.291,0.269,0.267,0.144,0.088,-,CALM,��
2019/06/13,14:10,0.188,0.173,0.289,0.272,0.267,0.144,0.089,-,CALM,��
2019/06/13,14:20,0.188,0.175,0.289,0.274,0.268,0.145,0.089,-,CALM,��
2019/06/13,14:30,0.188,0.175,0.288,0.272,0.265,0.145,0.091,��쓌,2.1,��
2019/06/13,14:40,0.188,0.175,0.289,0.272,0.267,0.145,0.089,��,3.4,��
2019/06/13,14:50,0.188,0.172,0.287,0.269,0.268,0.146,0.089,-,CALM,��
2019/06/13,15:00,0.189,0.173,0.288,0.271,0.268,0.145,0.088,-,CALM,��
2019/06/13,15:10,0.188,0.173,0.287,0.275,0.267,0.144,0.089,��쓌,2.3,��
2019/06/13,15:20,0.189,0.174,0.288,0.271,0.266,0.145,0.090,��쓌,4.8,��
2019/06/13,15:30,0.188,0.175,0.289,0.273,0.267,0.145,0.090,��쓌,5.2,��
2019/06/13,15:40,0.188,0.174,0.289,0.274,0.267,0.146,0.089,��쓌,5.5,��
2019/06/13,15:50,0.192,0.175,0.292,0.271,0.269,0.145,0.089,��쓌,5.5,��
2019/06/13,16:00,0.192,0.174,0.291,0.274,0.272,0.145,0.089,��쓌,6.3,��
2019/06/13,16:10,0.191,0.174,0.288,0.275,0.271,0.145,0.089,��쓌,3.8,��
2019/06/13,16:20,0.189,0.174,0.293,0.271,0.269,0.145,0.089,��쓌,4.4,��
2019/06/13,16:30,0.189,0.174,0.291,0.276,0.269,0.144,0.090,��쓌,7.1,��
2019/06/13,16:40,0.189,0.174,0.290,0.272,0.267,0.144,0.089,��쓌,7.5,��
2019/06/13,16:50,0.191,0.174,0.293,0.272,0.268,0.144,0.089,��쓌,7.0,��
2019/06/13,17:00,0.192,0.176,0.290,0.274,0.272,0.146,0.089,��쓌,6.3,��
2019/06/13,17:10,0.191,0.174,0.294,0.272,0.271,0.144,0.089,��쓌,7.3,��
2019/06/13,17:20,0.189,0.173,0.291,0.274,0.270,0.145,0.089,��쓌,7.0,��
2019/06/13,17:30,0.192,0.174,0.289,0.273,0.268,0.146,0.089,��쓌,6.7,��
2019/06/13,17:40,0.191,0.174,0.291,0.273,0.271,0.146,0.090,��쓌,8.2,��
2019/06/13,17:50,0.190,0.175,0.289,0.274,0.271,0.145,0.090,��쓌,7.3,��
2019/06/13,18:00,0.192,0.174,0.291,0.271,0.267,0.145,0.090,��쓌,8.9,��
2019/06/13,18:10,0.191,0.175,0.291,0.275,0.271,0.145,0.089,��쓌,9.5,��
2019/06/13,18:20,0.190,0.173,0.290,0.272,0.270,0.145,0.090,��쓌,10.1,��
2019/06/13,18:30,0.192,0.174,0.292,0.274,0.269,0.144,0.089,��,10.7,��
2019/06/13,18:40,0.191,0.174,0.289,0.271,0.273,0.145,0.089,��쓌,9.5,��
2019/06/13,18:50,0.190,0.174,0.292,0.274,0.270,0.145,0.089,��,9.8,��
2019/06/13,19:00,0.193,0.173,0.289,0.272,0.273,0.144,0.090,��,8.4,��
2019/06/13,19:10,0.189,0.175,0.291,0.273,0.269,0.145,0.089,��,8.4,��
2019/06/13,19:20,0.193,0.174,0.289,0.274,0.271,0.145,0.090,��,7.6,��
2019/06/13,19:30,0.190,0.175,0.291,0.272,0.270,0.145,0.089,��,7.3,��
2019/06/13,19:40,0.191,0.173,0.290,0.274,0.270,0.145,0.089,��,7.5,��
2019/06/13,19:50,0.191,0.175,0.291,0.272,0.270,0.146,0.090,��,7.6,��
2019/06/13,20:00,0.191,0.175,0.290,0.273,0.270,0.144,0.089,��,7.3,��
2019/06/13,20:10,0.192,0.174,0.291,0.271,0.271,0.145,0.089,��,7.9,��
2019/06/13,20:20,0.190,0.174,0.291,0.274,0.271,0.145,0.089,��,7.6,��
2019/06/13,20:30,0.191,0.175,0.291,0.272,0.270,0.146,0.089,��,7.3,��
2019/06/13,20:40,0.191,0.174,0.291,0.274,0.269,0.145,0.090,��,8.1,��
2019/06/13,20:50,0.192,0.174,0.290,0.272,0.271,0.145,0.089,��,8.1,��
2019/06/13,21:00,0.191,0.175,0.290,0.274,0.270,0.145,0.089,��,8.4,��
2019/06/13,21:10,0.192,0.175,0.291,0.272,0.271,0.145,0.089,��,8.1,��
2019/06/13,21:20,0.189,0.175,0.292,0.274,0.268,0.144,0.089,��,8.7,��
2019/06/13,21:30,0.192,0.174,0.290,0.272,0.271,0.144,0.089,��,8.4,��
2019/06/13,21:40,0.191,0.174,0.292,0.274,0.269,0.145,0.089,��,9.3,��
2019/06/13,21:50,0.191,0.173,0.289,0.272,0.271,0.145,0.090,��,9.2,��
2019/06/13,22:00,0.191,0.174,0.293,0.274,0.268,0.146,0.089,��,8.8,��
2019/06/13,22:10,0.190,0.174,0.289,0.272,0.272,0.145,0.090,��,9.2,��
2019/06/13,22:20,0.191,0.174,0.293,0.274,0.269,0.146,0.090,��,7.9,��
2019/06/13,22:30,0.190,0.174,0.290,0.273,0.270,0.145,0.089,��,7.8,��
2019/06/13,22:40,0.192,0.174,0.293,0.272,0.269,0.146,0.089,��,7.1,��
2019/06/13,22:50,0.191,0.173,0.290,0.275,0.270,0.144,0.090,��,7.1,��
2019/06/13,23:00,0.192,0.174,0.291,0.273,0.270,0.146,0.089,��,6.2,��
2019/06/13,23:10,0.191,0.174,0.290,0.274,0.270,0.145,0.090,��,6.0,��
2019/06/13,23:20,0.193,0.174,0.292,0.272,0.270,0.146,0.090,��,6.6,��
2019/06/13,23:30,0.189,0.175,0.291,0.273,0.270,0.145,0.089,��,6.8,��
2019/06/13,23:40,0.191,0.174,0.292,0.272,0.270,0.146,0.090,��,6.6,��
2019/06/13,23:50,0.190,0.174,0.290,0.274,0.271,0.144,0.089,��쐼,5.7,��
